This is the latest recevied weather packets stored in our database for station/object WX1NWA. If no packets are shown the sender has not sent any weather packets the latest 10 day(s).
| Time | Temp. | Humidity | Pressure | Rain* | Wind** | Luminosity | Snow |
|---|---|---|---|---|---|---|---|
| 1777843458 | 22.78° C | 47% | 1018.2 hPa | 0 mm | - | 488 W/m² | - |
| 1777843155 | 23.33° C | 46% | 1018.3 hPa | 0 mm | - | 487 W/m² | - |
| 1777842852 | 22.22° C | 49% | 1018.5 hPa | 0 mm | - | 498 W/m² | - |
| 1777842548 | 22.78° C | 47% | 1018.2 hPa | 0 mm | - | 511 W/m² | - |
| 1777842245 | 23.89° C | 47% | 1018.5 hPa | 0 mm | - | 525 W/m² | - |
| 1777841945 | 23.89° C | 46% | 1018.5 hPa | 0 mm | - | 541 W/m² | - |
| 1777841642 | 23.33° C | 49% | 1018.6 hPa | 0 mm | - | 563 W/m² | - |
| 1777841338 | 22.78° C | 47% | 1019 hPa | 0 mm | - | 576 W/m² | - |
| 1777841035 | 23.33° C | 46% | 1019 hPa | 0 mm | - | 583 W/m² | - |
| 1777840732 | 22.78° C | 45% | 1018.6 hPa | 0 mm | - | 596 W/m² | - |
| 1777840430 | 22.78° C | 45% | 1019 hPa | 0 mm | - | 605 W/m² | - |
| 1777840127 | 23.33° C | 45% | 1019.2 hPa | 0 mm | - | 608 W/m² | - |
| 1777839825 | 23.33° C | 46% | 1019.3 hPa | 0 mm | - | 620 W/m² | - |
| 1777839523 | 23.89° C | 47% | 1019.2 hPa | 0 mm | - | 601 W/m² | - |
| 1777839220 | 23.89° C | 43% | 1019.2 hPa | 0 mm | - | 599 W/m² | - |
| 1777838917 | 23.89° C | 44% | 1019.3 hPa | 0 mm | - | 628 W/m² | - |
| 1777838612 | 23.89° C | 45% | 1019.4 hPa | 0 mm | - | 629 W/m² | - |
| 1777838310 | 23.33° C | 45% | 1019.4 hPa | 0 mm | - | 629 W/m² | - |
| 1777838007 | 23.33° C | 45% | 1019.4 hPa | 0 mm | - | 650 W/m² | - |
| 1777837704 | 23.89° C | 43% | 1019.6 hPa | 0 mm | - | 670 W/m² | - |
| 1777837400 | 23.89° C | 45% | 1019.4 hPa | 0 mm | - | 667 W/m² | - |
| 1777837096 | 24.44° C | 44% | 1019.7 hPa | 0 mm | - | 657 W/m² | - |
| 1777836792 | 23.33° C | 45% | 1019.9 hPa | 0 mm | - | 653 W/m² | - |
| 1777836488 | 22.78° C | 44% | 1019.9 hPa | 0 mm | - | 650 W/m² | - |
| 1777836183 | 22.78° C | 44% | 1019.9 hPa | 0 mm | - | 665 W/m² | - |
* Rain latest hour (hover to see other rain measurements)
** Current wind speed in m/s (hover to see current wind gust speed)